Content
SEND FEEDBACK

Daily
Averages
Monthly
Summary
United States of America

PYGA BEACH, GUAM


Home > North America > United States > Guam
Elevation: 20 feet     Latitude: 13 17N     Longitude: 144 39E

WEATHER
 
SELECT A DAY
Number of Records: 341,794;   Date Range: 1/1/95 - 7/23/14
 
SHARE

PRINT THIS DATA

[ ← Previous Day ]
WEATHER ALMANAC - JULY 6, 2013
[ Next Day → ]
[ °C ]   °F
Weather ElementAverageHighLow
Temperature80.8 °F86 °F (11:06 am)76.8 °F (4:55 am)
Dewpoint77.8 °F80.6 °F (10:42 am)71.2 °F (11:55 pm)
Humidity90.8 %100 % (12:18 am)75 % (11:55 pm)
Barometer29.81 in29.86 in (9:55 pm)29.79 in (2:29 am)
Wind Speed8.3 mph16.1 mph (2:29 am)
Weather ElementAverage
Visibility9.2 mi
Wind DirectionE (91.9 °)

Weather ElementTotal
Precipitation0.18 in
Cooling Degree Days16.4 (Base 65)
Growing Degree Days31.4 (Base 50)
Averaged from 115 records on July 6, 2013
WEATHER CONDITIONS BREAKOUT
WIND DIRECTION BREAKOUT
WEATHER BY HOUR - JULY 6, 2013
[ °C ]   °F
Local TimeTemperatureDewpointHumidityBarometerVisibilityWind DirectionWind SpeedGust SpeedPrecipitationEventsConditions
12:18 AM78.8 °F78.8 °F100 %29.82 in10.0 miEast (90°)8.1 mphMostly Cloudy
12:38 AM78.8 °F77.0 °F94 %29.81 in10.0 miEast (80°)10.4 mphMostly Cloudy
12:55 AM79.5 °F77.4 °F93 %29.81 in10.0 miEast (80°)11.5 mphScattered Clouds
12:58 AM78.8 °F77.0 °F94 %29.81 in10.0 miEast (80°)11.5 mphMostly Cloudy
1:11 AM80.6 °F78.8 °F94 %29.81 in10.0 miEast (100°)10.4 mphScattered Clouds
1:16 AM80.6 °F78.8 °F94 %29.81 in10.0 miEast (90°)10.4 mphMostly Cloudy
1:30 AM80.6 °F78.8 °F94 %29.80 in10.0 miEast (100°)8.1 mphScattered Clouds
1:31 AM80.6 °F78.8 °F94 %29.80 in10.0 miEast (100°)8.1 mphMostly Cloudy
1:32 AM80.6 °F78.8 °F94 %29.80 in10.0 miEast (100°)10.4 mphMostly Cloudy
1:33 AM80.6 °F78.8 °F94 %29.80 in10.0 miEast (100°)10.4 mphMostly Cloudy
1:34 AM80.6 °F78.8 °F94 %29.80 in10.0 miEast (100°)9.2 mphMostly Cloudy
1:36 AM80.6 °F78.8 °F94 %29.80 in9.0 miEast (100°)8.1 mphMostly Cloudy
1:37 AM80.6 °F78.8 °F94 %29.80 in9.0 miESE (110°)10.4 mphRainLight Rain
1:38 AM80.6 °F78.8 °F94 %29.80 in8.0 miESE (110°)11.5 mphRainLight Rain
1:42 AM78.8 °F78.8 °F100 %29.80 in8.0 miESE (110°)9.2 mphLight Drizzle
1:47 AM78.8 °F78.8 °F100 %29.80 in9.0 miESE (110°)6.9 mphMostly Cloudy
1:48 AM78.8 °F78.8 °F100 %29.80 in10.0 miESE (110°)6.9 mphScattered Clouds
1:55 AM79.0 °F77.9 °F96 %29.80 in10.0 miEast (90°)8.1 mph0.00 inScattered Clouds
2:11 AM78.8 °F78.8 °F100 %29.80 in10.0 miEast (90°)11.5 mphMostly Cloudy
2:29 AM78.8 °F77.0 °F94 %29.79 in10.0 miESE (110°)16.1 mphMostly Cloudy
2:30 AM78.8 °F77.0 °F94 %29.80 in9.0 miESE (110°)16.1 mphLight Drizzle
2:35 AM78.8 °F77.0 °F94 %29.79 in8.0 miESE (110°)11.5 mphLight Drizzle
2:40 AM78.8 °F75.2 °F89 %29.79 in8.0 miESE (110°)8.1 mphMostly Cloudy
2:42 AM78.8 °F75.2 °F89 %29.79 in10.0 miEast (100°)8.1 mphScattered Clouds
2:55 AM78.4 °F76.6 °F94 %29.79 in10.0 miEast (100°)5.8 mph0.00 inPartly Cloudy
3:29 AM78.8 °F78.8 °F100 %29.79 in10.0 miESE (110°)8.1 mphLight Drizzle
3:34 AM78.8 °F78.8 °F100 %29.79 in10.0 miESE (110°)5.8 mphLight Drizzle
3:38 AM78.8 °F78.8 °F100 %29.79 in10.0 miEast (100°)5.8 mphMostly Cloudy
3:47 AM78.8 °F78.8 °F100 %29.79 in8.0 miEast (90°)10.4 mphRainLight Rain
3:48 AM78.8 °F78.8 °F100 %29.79 in7.0 miEast (100°)11.5 mphRainLight Rain
3:50 AM78.8 °F77.0 °F94 %29.79 in6.0 miESE (120°)8.1 mphRainLight Rain
3:53 AM78.8 °F77.0 °F94 %29.79 in6.0 miESE (120°)6.9 mphRainLight Rain
3:55 AM78.8 °F77.7 °F96 %29.80 in6.0 miESE (110°)6.9 mph0.01 inRainLight Rain
3:59 AM78.8 °F78.8 °F100 %29.80 in10.0 miESE (110°)5.8 mphOvercast
4:17 AM78.8 °F78.8 °F100 %29.79 in10.0 miESE (110°)6.9 mphMostly Cloudy
4:28 AM78.8 °F78.8 °F100 %29.79 in10.0 miESE (120°)5.8 mphScattered Clouds
4:31 AM78.8 °F78.8 °F100 %29.79 in10.0 miSE (130°)6.9 mphMostly Cloudy
4:32 AM78.8 °F78.8 °F100 %29.79 in10.0 miESE (120°)6.9 mphRainLight Rain
4:36 AM78.8 °F78.8 °F100 %29.80 in8.0 miEast (90°)11.5 mphRainLight Rain
4:40 AM78.8 °F77.0 °F94 %29.80 in4.0 miENE (60°)12.7 mphRainRain
4:43 AM78.8 °F77.0 °F94 %29.80 in4.0 miEast (80°)12.7 mphRainLight Rain
4:44 AM78.8 °F77.0 °F94 %29.80 in4.0 miEast (90°)12.7 mphRainLight Rain
4:55 AM76.8 °F75.7 °F96 %29.80 in3.0 miENE (70°)9.2 mph0.11 inRainLight Rain
4:57 AM77.0 °F75.2 °F94 %29.80 in2.5 miENE (70°)9.2 mphRainLight Rain
4:59 AM77.0 °F75.2 °F94 %29.80 in3.0 miEast (90°)4.6 mphRainLight Rain
5:08 AM77.0 °F75.2 °F94 %29.80 in9.0 miEast (100°)5.8 mphRainLight Rain
5:09 AM77.0 °F75.2 °F94 %29.80 in10.0 miEast (100°)5.8 mphMostly Cloudy
5:41 AM77.0 °F75.2 °F94 %29.80 in10.0 miEast (100°)3.5 mphMostly Cloudy
5:42 AM77.0 °F75.2 °F94 %29.80 in10.0 miEast (90°)4.6 mphMostly Cloudy
5:45 AM77.0 °F73.4 °F89 %29.81 in10.0 miEast (90°)6.9 mphMostly Cloudy
5:47 AM78.8 °F73.4 °F83 %29.81 in10.0 miEast (100°)8.1 mphMostly Cloudy
5:55 AM78.4 °F74.1 °F87 %29.81 in10.0 miEast (90°)9.2 mph0.03 inMostly Cloudy
6:13 AM77.0 °F73.4 °F89 %29.81 in10.0 miSE (130°)8.1 mphMostly Cloudy
6:15 AM77.0 °F73.4 °F89 %29.82 in10.0 miSE (130°)8.1 mphMostly Cloudy
6:17 AM77.0 °F73.4 °F89 %29.82 in10.0 miSE (130°)8.1 mphScattered Clouds
6:28 AM78.8 °F75.2 °F89 %29.82 in9.0 miEast (90°)10.4 mphRainLight Rain
6:51 AM78.8 °F75.2 °F89 %29.83 in10.0 miESE (110°)5.8 mphScattered Clouds
6:55 AM78.8 °F75.9 °F91 %29.83 in10.0 miESE (110°)6.9 mph0.00 inScattered Clouds
7:55 AM81.1 °F77.5 °F89 %29.84 in10.0 miESE (110°)8.1 mphPartly Cloudy
8:55 AM83.1 °F78.4 °F86 %29.85 in10.0 miEast (100°)9.2 mphPartly Cloudy
9:39 AM84.2 °F78.8 °F84 %29.85 in10.0 miEast (90°)6.9 mphLight Drizzle
9:51 AM84.2 °F78.8 °F84 %29.85 in10.0 miEast (80°)8.1 mphPartly Cloudy
9:55 AM84.2 °F79.7 °F86 %29.85 in10.0 miESE (110°)8.1 mph0.00 inPartly Cloudy
10:42 AM84.2 °F80.6 °F89 %29.83 in10.0 miESE (110°)9.2 mphMostly Cloudy
10:49 AM84.2 °F80.6 °F89 %29.83 in10.0 miEast (100°)8.1 mphMostly Cloudy
10:53 AM84.2 °F78.8 °F84 %29.83 in10.0 miESE (110°)9.2 mphMostly Cloudy
10:55 AM84.9 °F79.3 °F83 %29.83 in10.0 miSE (130°)10.4 mphMostly Cloudy
11:06 AM86.0 °F78.8 °F79 %29.83 in10.0 miESE (110°)9.2 mphMostly Cloudy
11:11 AM86.0 °F78.8 °F79 %29.83 in10.0 miESE (120°)11.5 mphScattered Clouds
11:55 AM85.5 °F78.6 °F80 %29.83 in10.0 miEast (100°)9.2 mphScattered Clouds
12:02 PM84.2 °F78.8 °F84 %29.82 in10.0 miEast (80°)9.2 mphMostly Cloudy
12:08 PM84.2 °F78.8 °F84 %29.82 in7.0 miENE (70°)9.2 mphRainLight Rain
12:19 PM82.4 °F78.8 °F89 %29.83 in10.0 miVariable6.9 mphMostly Cloudy
12:25 PM82.4 °F78.8 °F89 %29.83 in7.0 miEast (80°)5.8 mphRainLight Rain
12:30 PM82.4 °F78.8 °F89 %29.83 in2.5 miCalmRainRain
12:35 PM80.6 °F78.8 °F94 %29.82 in3.0 miESE (110°)6.9 mphRainLight Rain
12:41 PM82.4 °F78.8 °F89 %29.82 in10.0 miSE (130°)11.5 mphScattered Clouds
12:53 PM82.4 °F78.8 °F89 %29.83 in10.0 miESE (110°)8.1 mphMostly Cloudy
12:55 PM82.8 °F79.2 °F89 %29.83 in10.0 miEast (100°)5.8 mph0.03 inMostly Cloudy
12:56 PM82.4 °F78.8 °F89 %29.83 in10.0 miEast (100°)5.8 mphMostly Cloudy
12:58 PM82.4 °F78.8 °F89 %29.83 in10.0 miVariable6.9 mphMostly Cloudy
1:00 PM82.4 °F78.8 °F89 %29.83 in10.0 miENE (70°)10.4 mphRainLight Rain
1:02 PM82.4 °F78.8 °F89 %29.83 in10.0 miEast (80°)10.4 mphRainLight Rain
1:05 PM82.4 °F78.8 °F89 %29.83 in10.0 miEast (90°)6.9 mphRainLight Rain
1:08 PM82.4 °F78.8 °F89 %29.82 in10.0 miESE (120°)9.2 mphRainLight Rain
1:10 PM82.4 °F78.8 °F89 %29.82 in10.0 miESE (120°)9.2 mphMostly Cloudy
1:19 PM82.4 °F80.6 °F94 %29.82 in10.0 miEast (100°)6.9 mphMostly Cloudy
1:24 PM84.2 °F78.8 °F84 %29.82 in10.0 miEast (100°)8.1 mphScattered Clouds
1:55 PM85.3 °F79.9 °F84 %29.81 in10.0 miESE (120°)9.2 mph0.00 inPartly Cloudy
2:10 PM84.2 °F78.8 °F84 %29.81 in10.0 miESE (120°)9.2 mphMostly Cloudy
2:14 PM84.2 °F78.8 °F84 %29.81 in10.0 miESE (110°)9.2 mphScattered Clouds
2:18 PM84.2 °F78.8 °F84 %29.81 in10.0 miEast (80°)10.4 mphMostly Cloudy
2:29 PM84.2 °F78.8 °F84 %29.81 in10.0 miENE (70°)8.1 mphScattered Clouds
2:35 PM84.2 °F78.8 °F84 %29.81 in10.0 miENE (70°)9.2 mphMostly Cloudy
2:42 PM84.2 °F78.8 °F84 %29.81 in10.0 miESE (110°)8.1 mphScattered Clouds
2:55 PM84.4 °F78.1 °F81 %29.81 in10.0 miEast (90°)9.2 mphScattered Clouds
2:58 PM84.2 °F78.8 °F84 %29.81 in10.0 miEast (90°)6.9 mphMostly Cloudy
3:38 PM82.4 °F77.0 °F84 %29.80 in10.0 miESE (110°)8.1 mphScattered Clouds
3:39 PM82.4 °F77.0 °F84 %29.80 in10.0 miESE (110°)9.2 mphMostly Cloudy
3:55 PM82.8 °F77.2 °F83 %29.80 in10.0 miEast (80°)8.1 mphMostly Cloudy
4:33 PM82.4 °F77.0 °F84 %29.79 in10.0 miNE (40°)8.1 mphMostly Cloudy
4:37 PM82.4 °F77.0 °F84 %29.79 in10.0 miNNE (30°)5.8 mphMostly Cloudy
4:42 PM82.4 °F77.0 °F84 %29.80 in10.0 miNE (50°)6.9 mphMostly Cloudy
4:55 PM82.8 °F76.8 °F82 %29.79 in10.0 miNE (50°)8.1 mphScattered Clouds
5:55 PM81.1 °F76.5 °F86 %29.80 in10.0 miESE (120°)4.6 mphClear
6:55 PM81.0 °F77.9 °F90 %29.82 in10.0 miNNE (30°)6.9 mphScattered Clouds
7:08 PM80.6 °F78.8 °F94 %29.82 in10.0 miEast (80°)5.8 mphMostly Cloudy
7:17 PM80.6 °F78.8 °F94 %29.83 in10.0 miEast (90°)5.8 mphScattered Clouds
7:44 PM80.6 °F78.8 °F94 %29.84 in10.0 miNE (50°)9.2 mphMostly Cloudy
7:53 PM80.6 °F78.8 °F94 %29.84 in10.0 miNE (50°)9.2 mphMostly Cloudy
7:55 PM80.8 °F78.1 °F91 %29.84 in10.0 miNE (50°)9.2 mphMostly Cloudy
8:55 PM79.7 °F77.5 °F93 %29.84 in10.0 miENE (60°)5.8 mphOvercast
9:55 PM79.5 °F77.4 °F93 %29.86 in10.0 miNE (40°)4.6 mphPartly Cloudy
10:55 PM79.7 °F77.9 °F94 %29.86 in10.0 miNE (40°)3.5 mphClear
11:55 PM79.7 °F71.2 °F75 %29.86 in10.0 miNE (40°)3.5 mphClear
Hourly data recorded from PGUA, located miles away from Pyga Beach, Guam







STORIES FROM OUR PARTNERS